Georgetown, DE

4:06 PM EDT on April 20, 2018 (GMT -0400)
Sussex County

Weather History for KGED - October, 2013

Change the Weather History Date:

Monday, October 7, 2013

  Actual Average Record
Temperature  
Mean Temperature 74 °F 61 °F  
Max Temperature 86 °F 71 °F 91 °F (2007)
Min Temperature 61 °F 50 °F 32 °F (1966)
Degree Days  
Heating Degree Days 0 5  
Month to date heating degree days 0 32  
Since 1 July heating degree days 52 70  
Cooling Degree Days 9 1  
Month to date cooling degree days 61 10  
Year to date cooling degree days 1384 1181  
Growing Degree Days 22 (Base 50)    
Moisture  
Dew Point 65 °F    
Average Humidity 74    
Maximum Humidity 93    
Minimum Humidity 55    
Precipitation  
Precipitation 0.78 in 0.12 in 2.36 in (1972)
Month to date precipitation 0.78 0.79  
Year to date precipitation 43.46 34.19  
Sea Level Pressure  
Sea Level Pressure 29.92 in    
Wind  
Wind Speed 8 mph (SSW)    
Max Wind Speed 28 mph    
Max Gust Speed 43 mph    
Visibility 7 miles    
Events Rain    
T = Trace of Precipitation, MM = Missing Value Source: NWS Daily Summary

Daily Weather History Graph

Daily Weather History Graph

Search for Another Location

Airport or City:

Astronomy

Oct. 07, 2013 Rise Set
Actual Time 7:03 AM EDT 6:34 PM EDT
Civil Twilight 6:36 AM EDT 7:01 PM EDT
Nautical Twilight 6:05 AM EDT 7:31 PM EDT
Astronomical Twilight 5:34 AM EDT 8:02 PM EDT
Moon 9:48 AM EDT (10/7) 8:19 PM EDT (10/7)
Length of Visible Light 12h 24m
Length of Day
11h 31m
Waxing Crescent, 8% of the Moon is Illuminated
Oct 7
Waxing Crescent
Oct 11
First Quarter
Oct 18
Full
Oct 26
Last Quarter
Nov 3
New

Hourly Weather History & Observations

Time (EDT) Temp. Heat Index Dew Point Humidity Pressure Visibility Wind Dir Wind Speed Gust Speed Precip Events Conditions
12:54 AM 70.0 °F - 66.0 °F 87% 29.99 in 10.0 mi SSE 9.2 mph - N/A   Clear
1:54 AM 70.0 °F - 66.0 °F 87% 29.99 in 9.0 mi SSE 5.8 mph - N/A   Partly Cloudy
2:54 AM 70.0 °F - 66.0 °F 87% 29.97 in 10.0 mi SSE 4.6 mph - N/A   Overcast
3:54 AM 70.0 °F - 66.9 °F 90% 29.95 in 10.0 mi SSE 6.9 mph - N/A   Partly Cloudy
4:54 AM 70.0 °F - 66.9 °F 90% 29.94 in 10.0 mi SSE 8.1 mph - N/A   Overcast
5:54 AM 71.1 °F - 66.9 °F 87% 29.93 in 10.0 mi SSE 9.2 mph - N/A   Mostly Cloudy
6:54 AM 72.0 °F - 66.9 °F 84% 29.92 in 10.0 mi South 8.1 mph - N/A   Overcast
7:42 AM 71.6 °F - 68.0 °F 88% 29.92 in 4.0 mi South 6.9 mph - 0.03 in Rain Light Rain
7:54 AM 71.1 °F - 68.0 °F 90% 29.92 in 4.0 mi South 5.8 mph - 0.04 in Rain Light Rain
7:58 AM 71.6 °F - 68.0 °F 88% 29.92 in 1.8 mi South 4.6 mph - 0.03 in Rain Rain
8:12 AM 71.6 °F - 69.8 °F 94% 29.91 in 3.0 mi SSE 5.8 mph - 0.07 in Rain Light Rain
8:36 AM 71.6 °F - 69.8 °F 94% 29.91 in 10.0 mi South 9.2 mph - 0.07 in   Mostly Cloudy
8:54 AM 73.0 °F - 70.0 °F 90% 29.90 in 10.0 mi South 10.4 mph - 0.07 in   Mostly Cloudy
9:49 AM 75.2 °F - 71.6 °F 89% 29.90 in 10.0 mi South 11.5 mph - 0.00 in   Overcast
9:54 AM 75.0 °F - 71.1 °F 87% 29.90 in 10.0 mi South 12.7 mph - 0.00 in   Overcast
10:34 AM 77.0 °F - 71.6 °F 83% 29.90 in 10.0 mi SSW 18.4 mph 25.3 mph N/A   Overcast
10:54 AM 77.0 °F - 70.0 °F 79% 29.89 in 10.0 mi South 17.3 mph 25.3 mph N/A   Overcast
11:54 AM 80.1 °F 83.2 °F 70.0 °F 71% 29.88 in 10.0 mi South 18.4 mph 28.8 mph N/A   Mostly Cloudy
12:26 PM 82.4 °F 86.3 °F 69.8 °F 66% 29.87 in 10.0 mi South 20.7 mph 31.1 mph N/A   Mostly Cloudy
12:54 PM 82.9 °F 85.8 °F 68.0 °F 60% 29.86 in 10.0 mi South 13.8 mph 32.2 mph N/A   Mostly Cloudy
1:54 PM 84.0 °F 86.5 °F 66.9 °F 56% 29.84 in 10.0 mi SSW 18.4 mph 27.6 mph N/A   Mostly Cloudy
2:54 PM 84.0 °F 86.5 °F 66.9 °F 56% 29.84 in 10.0 mi SSW 15.0 mph 26.5 mph N/A   Partly Cloudy
3:26 PM 69.8 °F - 64.4 °F 83% 29.88 in 3.0 mi West 11.5 mph 31.1 mph 0.04 in Rain Rain
3:38 PM 69.8 °F - 64.4 °F 83% 29.88 in 2.0 mi WSW 10.4 mph 20.7 mph 0.10 in Rain Rain
3:54 PM 68.0 °F - 64.0 °F 87% 29.90 in 3.0 mi WSW 10.4 mph 19.6 mph 0.13 in Rain Rain
4:12 PM 68.0 °F - 64.4 °F 88% 29.90 in 2.0 mi WSW 5.8 mph 17.3 mph 0.06 in Rain Rain
4:44 PM 66.2 °F - 64.4 °F 94% 29.91 in 3.0 mi SW 4.6 mph - 0.19 in Rain Rain
4:52 PM 66.2 °F - 64.4 °F 94% 29.91 in 2.5 mi SW 5.8 mph - 0.22 in Rain Rain
4:54 PM 66.9 °F - 64.9 °F 93% 29.91 in 3.0 mi SW 6.9 mph - 0.22 in Rain Rain
5:47 PM 66.2 °F - 64.4 °F 94% 29.90 in 2.0 mi Calm Calm - 0.15 in Rain Rain
5:54 PM 66.9 °F - 64.9 °F 93% 29.91 in 2.5 mi Calm Calm - 0.17 in Rain Rain
6:08 PM 66.2 °F - 64.4 °F 94% 29.92 in 1.8 mi Calm Calm - 0.06 in Rain Heavy Rain
6:14 PM 66.2 °F - 64.4 °F 94% 29.94 in 3.0 mi West 3.5 mph - 0.07 in Rain Rain
6:22 PM 66.2 °F - 64.4 °F 94% 29.93 in 9.0 mi Calm Calm - 0.08 in Rain Light Rain
6:41 PM 62.6 °F - 57.2 °F 82% 29.94 in 10.0 mi North 8.1 mph - 0.09 in Rain Rain
6:54 PM 62.1 °F - 57.9 °F 86% 29.96 in 5.0 mi WNW 11.5 mph - 0.13 in Rain Rain
7:03 PM 60.8 °F - 57.2 °F 88% 29.95 in 5.0 mi Variable 3.5 mph 17.3 mph 0.02 in Rain Rain
7:54 PM 62.1 °F - 57.9 °F 86% 29.96 in 10.0 mi Calm Calm - 0.02 in   Overcast
8:54 PM 62.1 °F - 57.9 °F 86% 29.97 in 10.0 mi NW 3.5 mph - N/A   Overcast
9:54 PM 62.1 °F - 57.9 °F 86% 29.99 in 10.0 mi Calm Calm - N/A   Overcast
10:54 PM 62.1 °F - 57.9 °F 86% 30.02 in 10.0 mi Calm Calm - N/A   Overcast
11:54 PM 62.1 °F - 57.0 °F 84% 30.04 in 10.0 mi NNW 4.6 mph - N/A   Overcast